User: anonymous   Login
Location: Fort Wayne
(41.1310°N, 85.1290°W)
Time: 08:10:34
(UTC-04:00)
Language:

SR - Orbit

View from above orbital plane
View from above orbital plane
View from above satellite
View from above satellite

Ground track
Ground track

The orbit data is extracted from the following two-line orbital elements,

1 00046U 60007B   15148.60362757  .00000430  00000-0  11070-3 0  9997
2 00046 066.6913 354.7749 0205205 066.5319 295.7211 14.48512806871525
Epoch (UTC): 28 May 2015 14:29:13
Eccentricity: 0.0205205
inclination: 66.6913°
perigee height: 584 km
apogee height: 876 km
right ascension of ascending node: 354.7749°
argument of perigee: 66.5319°
revolutions per day: 14.48512806
mean anomaly at epoch: 295.7211°
orbit number at epoch: 87152

The dashed part of the orbit path shows where the satellite is in the earth's shadow,  

DLR